Weather History for Key West NAF, FL

Change the Weather History Date:

Saturday, January 19, 2013

  Actual Average Record
Temperature  
Mean Temperature 67 °F -  
Max Temperature 73 °F 75 °F 82 °F (1962)
Min Temperature 61 °F 64 °F 48 °F (1977)
Cooling Degree Days 2    
Growing Degree Days 17 (Base 50)    
Moisture  
Dew Point 58 °F    
Average Humidity 69    
Maximum Humidity 81    
Minimum Humidity 53    
Precipitation  
Precipitation 0.00 in - - ()
Sea Level Pressure  
Sea Level Pressure 30.15 in    
Wind  
Wind Speed 3 mph (North)    
Max Wind Speed 7 mph    
Max Gust Speed -    
Visibility 10 miles    
Events      
Averages and records for this station are not official NWS values.
T = Trace of Precipitation, MM = Missing Value Source: NWS Daily Summary

Daily Weather History Graph

Daily Weather History Graph

Search for Another Location

Airport:

Trip Planner

Search our weather history database for the weather conditions in past years. The results will help you decide how hot, cold, wet, or windy it might be!

Date:

Astronomy

Jan. 19, 2013 Rise Set
Actual Time 7:12 AM EST 6:03 PM EST
Civil Twilight 6:48 AM EST 6:27 PM EST
Nautical Twilight 6:20 AM EST 6:55 PM EST
Astronomical Twilight 5:52 AM EST 7:22 PM EST
Moon 12:21 PM EST (1/19) 12:54 AM EST (1/19)
Length of Visible Light 11h 39m
Length of Day
10h 50m
First Quarter, 57% of the Moon is Illuminated
Jan 19
First Quarter
Jan 26
Full
Feb 3
Last Quarter
Feb 10
New
Feb 17
First Quarter

Hourly Weather History & Observations

Time (EST) Temp. Dew Point Humidity Pressure Visibility Wind Dir Wind Speed Gust Speed Precip Events Conditions
12:53 AM 61.0 °F 53.1 °F 75% 30.18 in 10.0 mi NE 3.5 mph - N/A   Clear
1:53 AM 63.0 °F 55.0 °F 75% 30.16 in 10.0 mi Calm Calm - N/A   Overcast
2:53 AM 63.0 °F 55.0 °F 75% 30.15 in 10.0 mi North 3.5 mph - N/A   Overcast
3:53 AM 64.0 °F 54.0 °F 70% 30.14 in 10.0 mi NW 3.5 mph - N/A   Overcast
4:53 AM 64.0 °F 55.9 °F 75% 30.15 in 10.0 mi Calm Calm - N/A   Overcast
5:53 AM 64.9 °F 55.0 °F 70% 30.16 in 10.0 mi WNW 4.6 mph - N/A   Overcast
6:01 AM 64.4 °F 55.4 °F 73% 30.16 in 10.0 mi WNW 4.6 mph - N/A   Overcast
6:53 AM 64.9 °F 55.0 °F 70% 30.17 in 10.0 mi Calm Calm - N/A   Overcast
7:53 AM 66.0 °F 55.9 °F 70% 30.18 in 10.0 mi NNW 3.5 mph - N/A   Overcast
8:53 AM 69.1 °F 57.0 °F 65% 30.19 in 10.0 mi North 4.6 mph - N/A   Overcast
9:53 AM 70.0 °F 57.0 °F 63% 30.22 in 10.0 mi NNE 4.6 mph - N/A   Overcast
10:53 AM 73.0 °F 55.0 °F 53% 30.21 in 10.0 mi Variable 3.5 mph - N/A   Overcast
11:53 AM 71.1 °F 57.0 °F 61% 30.19 in 10.0 mi NNE 3.5 mph - N/A   Overcast
12:53 PM 73.0 °F 57.9 °F 59% 30.15 in 10.0 mi North 4.6 mph - N/A   Overcast
1:53 PM 73.0 °F 55.9 °F 55% 30.12 in 10.0 mi NE 4.6 mph - N/A   Mostly Cloudy
2:53 PM 73.0 °F 59.0 °F 61% 30.11 in 10.0 mi NNE 6.9 mph - N/A   Mostly Cloudy
3:53 PM 72.0 °F 61.0 °F 68% 30.11 in 10.0 mi NNE 6.9 mph - N/A   Mostly Cloudy
4:53 PM 72.0 °F 61.0 °F 68% 30.10 in 10.0 mi NNE 4.6 mph - N/A   Mostly Cloudy
5:53 PM 71.1 °F 61.0 °F 70% 30.11 in 10.0 mi NNE 5.8 mph - N/A   Mostly Cloudy
6:53 PM 71.1 °F 60.1 °F 68% 30.12 in 10.0 mi NNE 4.6 mph - N/A   Mostly Cloudy
7:53 PM 71.1 °F 61.0 °F 70% 30.13 in 10.0 mi NNE 3.5 mph - N/A   Overcast
8:53 PM 71.1 °F 61.0 °F 70% 30.14 in 10.0 mi Calm Calm - N/A   Overcast
9:53 PM 70.0 °F 62.1 °F 76% 30.14 in 10.0 mi NW 3.5 mph - N/A   Overcast
10:53 PM 71.1 °F 63.0 °F 75% 30.13 in 10.0 mi NNW 3.5 mph - N/A   Overcast
11:53 PM 70.0 °F 64.0 °F 81% 30.12 in 10.0 mi Calm Calm - N/A   Overcast